2020-051D (45942 NORAD) Tracking and Keplerian Element Data

This shows tracking and keplerian element data for the satellite.

Feedback or suggestion? Click here.




ElementValue
Catalog45942
Name2020-051D
Epoch Orbit280
Epoch Day225.14787545
Epoch Year2020
RAAN300.1598
Inclination97.603
Eccentricity0.0153609
Argument of Perigee319.2035
Mean Anonmoly96.7218
Mean Motion15.60277135
Decay Rate0.00011564
L11 45942U 20051D 20225.14787545 .00011564 23265-5 83689-4 0 9992
L22 45942 97.6030 300.1598 0153609 319.2035 96.7218 15.60277135 2804

Live tracking and technical data element details for 2020-051D (NORAD 45942). 2020-051D can be tracked NOW for your location showing map with azimuth and elevation plus other details from your city location.

Track the satellite on the map from your city or location and see movement details for azimuth, elevation, latitude, longitude, range, height, and movement on the map or in text.







IsCatalogInMostPopularTable: catalog: 45942, numindb: 3
Update: records affected: 1



GetName: 45942 2020-051D

Hit Count: updated at: Fri, 14 Aug 2020 04:42:33 GMT